Location: Rounton
(54.4000°N, 1.3500°W)
Time: 18:36:56
(UTC+00:00)

Vanguard 2 - Pass Details

Date: 30 November 2021
Orbit: 553 x 2936 km, 32.9° (Epoch: 21 January)

Event Time Altitude Azimuth Distance (km) Brightness Sun altitude
Rises 14:58:41 0° 211° (SSW) 3,472 13.1 4.2°
Reaches altitude 10° 15:02:37 10° 183° (S) 2,927 11.4 3.8°
Maximum altitude 15:05:39 13° 158° (SSE) 3,019 10.9 3.5°
Drops below altitude 10° 15:09:15 10° 134° (SE) 3,624 11.0 3.2°
Sets 15:15:30 0° 111° (ESE) 5,237 11.5 2.5°
